FW8563 Weather Reports


time (UTC)temp
C
wind
direction
speed
KPH
gust
KPH
rain 1hr
cm
rain 24hr
cm
rain mn
cm
humidity
%
barometer
mb
20260507064636 12 126 0.0 6.4 0.00 0.43 0.36 99 1016.2
20260507064134 12 131 1.6 3.2 0.00 0.43 0.36 99 1016.1
20260507063633 12 209 0.0 3.2 0.00 0.43 0.36 99 1016.2
20260507063133 12 165 0.0 3.2 0.00 0.43 0.36 99 1016.1
20260507062631 12 140 1.6 8.0 0.00 0.43 0.36 99 1016.1
20260507062133 12 219 1.6 8.0 0.00 0.43 0.36 99 1016.1
20260507061630 12 226 0.0 6.4 0.00 0.43 0.36 99 1016.0
20260507061130 12 151 0.0 3.2 0.00 0.43 0.36 99 1015.9
20260507060631 12 220 0.0 3.2 0.00 0.43 0.36 99 1015.9
20260507060130 12 150 0.0 1.6 0.00 0.43 0.36 99 1016.0
20260507055631 12 114 0.0 3.2 0.00 0.43 0.36 99 1015.9
20260507055130 12 148 0.0 3.2 0.00 0.43 0.36 99 1015.9
20260507054130 11 212 0.0 3.2 0.00 0.43 0.36 99 1016.0
20260507053629 11 217 0.0 3.2 0.00 0.43 0.36 99 1016.0
20260507053130 11 200 0.0 3.2 0.00 0.46 0.36 99 1015.9
20260507052629 11 208 0.0 3.2 0.00 0.46 0.36 99 1015.9
20260507052126 11 198 0.0 1.6 0.00 0.46 0.36 99 1015.8
20260507051625 11 214 0.0 1.6 0.00 0.48 0.36 99 1015.8
20260507050622 11 134 0.0 3.2 0.00 0.51 0.36 99 1015.8
20260507050122 11 200 0.0 6.4 0.00 0.51 0.36 99 1015.7
20260507045623 11 227 1.6 6.4 0.00 0.51 0.36 99 1015.8
20260507045119 11 203 0.0 4.8 0.00 0.51 0.36 99 1015.8
20260507044620 11 218 0.0 4.8 0.00 0.51 0.36 99 1015.6
20260507044119 11 233 1.6 4.8 0.00 0.51 0.36 99 1015.5
20260507043619 11 212 1.6 6.4 0.00 0.51 0.36 99 1015.5
20260507043121 11 226 1.6 6.4 0.00 0.51 0.36 99 1015.4
20260507042617 11 226 1.6 6.4 0.00 0.51 0.36 99 1015.4
20260507042114 11 223 0.0 6.4 0.00 0.51 0.36 99 1015.4
20260507041617 11 226 0.0 4.8 0.00 0.51 0.36 99 1015.4
20260507041117 11 174 1.6 6.4 0.00 0.51 0.36 99 1015.4
20260507040616 11 212 1.6 6.4 0.00 0.51 0.36 99 1015.3
20260507040118 11 223 1.6 4.8 0.00 0.51 0.36 99 1015.4
20260507035617 11 207 1.6 8.0 0.00 0.51 0.36 99 1015.3
20260507035116 11 199 1.6 8.0 0.00 0.53 0.36 99 1015.3
20260507034615 11 181 1.6 8.0 0.00 0.53 0.36 98 1015.2
20260507034114 11 148 1.6 9.7 0.00 0.53 0.36 99 1015.3
20260507033113 11 149 1.6 9.7 0.00 0.53 0.36 99 1015.2
20260507032614 11 231 3.2 8.0 0.00 0.53 0.36 99 1015.2
20260507032112 11 131 1.6 6.4 0.00 0.53 0.36 99 1015.3
20260507031614 11 127 1.6 11.3 0.00 0.53 0.36 99 1015.2
20260507025110 11 150 3.2 9.7 0.00 0.53 0.36 98 1015.3
20260507024610 12 165 3.2 14.5 0.00 0.53 0.36 98 1015.3
20260507024112 12 184 3.2 14.5 0.00 0.53 0.36 99 1015.3
20260507023612 12 179 3.2 14.5 0.00 0.53 0.36 99 1015.2
20260507022610 12 133 4.8 16.1 0.00 0.53 0.36 99 1015.2
20260507022107 12 201 3.2 12.9 0.00 0.53 0.36 99 1015.1
20260507021602 12 140 3.2 11.3 0.00 0.53 0.36 99 1015.2
20260507021102 12 143 4.8 14.5 0.00 0.53 0.36 98 1015.2
20260507020600 12 172 3.2 14.5 0.00 0.53 0.36 98 1015.2
20260507015602 12 99 3.2 11.3 0.00 0.53 0.36 98 1015.2
20260507015100 12 139 3.2 12.9 0.00 0.53 0.36 98 1015.2
20260507014613 12 151 4.8 12.9 0.00 0.53 0.36 99 1015.2
20260507014100 12 162 1.6 11.3 0.00 0.53 0.36 99 1015.3
20260507013602 12 224 1.6 6.4 0.00 0.53 0.36 99 1015.3
20260507013104 12 184 1.6 8.0 0.00 0.53 0.36 99 1015.3
20260507012602 12 210 3.2 11.3 0.00 0.53 0.36 98 1015.2
20260507012101 12 213 4.8 12.9 0.03 0.56 0.36 99 1015.2
20260507011100 12 193 1.6 8.0 0.08 0.58 0.36 98 1015.2
20260507010559 12 198 1.6 6.4 0.10 0.58 0.36 98 1015.3
20260507005600 12 191 1.6 6.4 0.15 0.58 0.36 98 1015.2
20260507005057 12 161 1.6 6.4 0.18 0.58 0.36 98 1015.3
20260507004056 12 217 4.8 11.3 0.23 0.58 0.36 98 1015.2
20260507003559 12 195 4.8 11.3 0.25 0.58 0.36 98 1015.1
20260507003055 12 223 4.8 14.5 0.28 0.58 0.36 98 1015.0
20260507002552 12 221 4.8 16.1 0.28 0.58 0.36 98 1015.0
20260507002054 12 256 4.8 16.1 0.25 0.56 0.33 98 1014.9
20260507001559 12 165 4.8 14.5 0.23 0.51 0.33 98 1014.9
20260506235547 12 171 3.2 9.7 0.18 0.43 0.20 98 1015.1
20260506235039 12 269 3.2 11.3 0.15 0.38 0.15 98 1015.2
20260506233536 12 136 1.6 8.0 0.08 0.33 0.10 98 1015.2
20260506233035 12 127 4.8 12.9 0.05 0.30 0.08 98 1015.2
20260506231536 12 146 3.2 11.3 0.08 0.30 0.08 98 1015.3
20260506231034 12 141 3.2 12.9 0.05 0.28 0.05 98 1015.2
20260506230533 12 131 4.8 12.9 0.05 0.25 0.05 98 1015.2
20260506230029 12 131 3.2 8.0 0.03 0.23 0.03 98 1015.2
20260506225030 12 146 1.6 9.7 0.03 0.23 0.03 98 1015.3
20260506223529 12 180 4.8 17.7 0.03 0.23 0.03 98 1015.4
20260506222529 12 141 4.8 12.9 0.00 0.23 0.00 98 1015.4
20260506222028 12 158 6.4 20.9 0.00 0.23 0.00 98 1015.5
20260506221528 12 140 8.0 20.9 0.00 0.23 0.00 98 1015.6
20260506221027 12 171 8.0 19.3 0.00 0.23 0.00 98 1015.5
20260506220028 13 183 4.8 19.3 0.00 0.23 0.00 98 1015.4
20260506215530 13 141 6.4 16.1 0.00 0.23 0.23 98 1015.5
20260506215028 13 125 6.4 16.1 0.00 0.23 0.23 98 1015.5
20260506214534 13 224 4.8 14.5 0.00 0.23 0.23 98 1015.6
20260506214029 13 124 6.4 14.5 0.00 0.23 0.23 98 1015.5
20260506213028 13 207 6.4 19.3 0.00 0.23 0.23 98 1015.5
20260506212527 13 211 6.4 16.1 0.00 0.23 0.23 98 1015.5
20260506212029 13 152 8.0 19.3 0.00 0.23 0.23 98 1015.4
20260506211028 13 238 6.4 17.7 0.00 0.23 0.23 98 1015.6
20260506210528 13 213 4.8 16.1 0.00 0.23 0.23 98 1015.6
20260506210028 13 191 6.4 17.7 0.00 0.23 0.23 98 1015.7
20260506205529 13 231 6.4 17.7 0.00 0.23 0.23 98 1015.7
20260506204528 13 184 6.4 19.3 0.00 0.23 0.23 98 1015.7
20260506204028 13 186 4.8 19.3 0.00 0.23 0.23 98 1015.4
20260506203530 13 139 3.2 16.1 0.00 0.23 0.23 98 1015.5
20260506201528 13 160 6.4 22.5 0.00 0.23 0.23 98 1015.4
20260506201025 13 217 4.8 22.5 0.00 0.23 0.23 98 1015.5
20260506200524 13 157 4.8 17.7 0.00 0.23 0.23 98 1015.4
20260506200024 13 110 4.8 17.7 0.05 0.23 0.23 98 1015.3
20260506195524 13 143 4.8 20.9 0.05 0.23 0.23 98 1015.2
20260506195026 13 195 4.8 20.9 0.05 0.23 0.23 98 1015.2
20260506194528 13 174 4.8 12.9 0.05 0.23 0.23 98 1015.2
20260506194024 13 218 4.8 14.5 0.05 0.23 0.23 98 1015.2
20260506193525 13 148 4.8 14.5 0.05 0.23 0.23 98 1015.1
20260506193025 13 217 4.8 16.1 0.05 0.23 0.23 98 1015.1
20260506192023 13 143 4.8 17.7 0.05 0.23 0.23 98 1015.0
20260506191522 13 176 4.8 17.7 0.05 0.23 0.23 98 1014.9
20260506191027 13 213 4.8 16.1 0.05 0.23 0.23 97 1014.8
20260506190525 13 199 4.8 17.7 0.05 0.23 0.23 97 1014.8
20260506190022 13 217 4.8 22.5 0.00 0.18 0.18 97 1014.7
20260506185522 13 218 4.8 22.5 0.00 0.18 0.18 97 1014.7
20260506185020 13 187 3.2 12.9 0.00 0.18 0.18 97 1014.6
20260506184016 13 192 3.2 11.3 0.00 0.18 0.18 97 1014.6
20260506183515 13 233 3.2 11.3 0.00 0.18 0.18 96 1014.6
20260506183015 13 211 3.2 14.5 0.00 0.18 0.18 96 1014.6
20260506182514 13 223 4.8 14.5 0.00 0.18 0.18 96 1014.6
20260506182013 13 214 4.8 16.1 0.00 0.18 0.18 96 1014.5
20260506181012 13 273 4.8 16.1 0.00 0.18 0.18 96 1014.6
20260506180515 13 225 3.2 11.3 0.00 0.18 0.18 95 1014.5
20260506180012 13 195 3.2 11.3 0.00 0.18 0.18 95 1014.5
20260506175008 13 157 3.2 12.9 0.00 0.18 0.18 95 1014.6
20260506174507 13 139 3.2 11.3 0.00 0.18 0.18 95 1014.5
20260506173503 13 115 4.8 20.9 0.00 0.18 0.18 94 1014.6
20260506172504 13 159 4.8 12.9 0.00 0.18 0.18 94 1014.5
20260506172005 13 142 4.8 16.1 0.00 0.18 0.18 94 1014.5
20260506171501 13 236 4.8 17.7 0.00 0.18 0.18 94 1014.4
20260506171004 13 146 6.4 17.7 0.00 0.18 0.18 95 1014.4
20260506170505 13 212 8.0 20.9 0.00 0.18 0.18 95 1014.4
20260506170000 13 92 6.4 27.4 0.00 0.18 0.18 95 1014.5
20260506165503 13 250 6.4 27.4 0.00 0.18 0.18 94 1014.5
20260506165001 13 193 6.4 17.7 0.00 0.18 0.18 94 1014.5
20260506164503 13 79 6.4 22.5 0.00 0.18 0.18 94 1014.5
20260506163501 13 152 4.8 20.9 0.00 0.18 0.18 94 1014.5
20260506161951 13 180 6.4 19.3 0.00 0.18 0.18 95 1014.5
20260506160950 13 223 8.0 19.3 0.00 0.18 0.18 95 1014.5
20260506160449 13 110 8.0 22.5 0.00 0.18 0.18 95 1014.4
20260506155949 13 106 8.0 22.5 0.00 0.18 0.18 95 1014.5
20260506154952 14 193 8.0 22.5 0.00 0.18 0.18 95 1014.6
20260506154452 14 230 9.7 22.5 0.03 0.18 0.18 94 1014.5
20260506153949 14 208 8.0 19.3 0.03 0.18 0.18 94 1014.6
20260506153451 14 225 8.0 19.3 0.03 0.18 0.18 94 1014.6
20260506152449 14 162 8.0 19.3 0.03 0.18 0.18 94 1014.5
20260506151948 14 147 6.4 19.3 0.03 0.18 0.18 94 1014.6
20260506151443 14 193 6.4 17.7 0.03 0.18 0.18 94 1014.5
20260506150943 14 202 6.4 19.3 0.03 0.18 0.18 95 1014.5
20260506150441 14 210 6.4 19.3 0.03 0.20 0.18 95 1014.5
20260506145942 14 240 6.4 17.7 0.03 0.20 0.18 95 1014.6
20260506145441 14 184 6.4 20.9 0.03 0.20 0.18 95 1014.4
20260506144943 14 231 6.4 20.9 0.03 0.20 0.18 95 1014.2
20260506144441 14 210 4.8 12.9 0.00 0.18 0.15 96 1014.2
20260506143942 14 196 6.4 19.3 0.00 0.18 0.15 96 1014.4
20260506143442 14 198 6.4 19.3 0.00 0.18 0.15 96 1014.4
20260506142941 13 181 6.4 17.7 0.00 0.18 0.15 96 1014.5
20260506142441 13 229 6.4 14.5 0.00 0.18 0.15 96 1014.6
20260506141941 13 282 6.4 19.3 0.03 0.18 0.15 96 1014.6
20260506141441 13 136 4.8 19.3 0.03 0.18 0.15 96 1014.7
20260506140943 13 212 4.8 19.3 0.03 0.18 0.15 96 1014.6
20260506140440 13 134 4.8 19.3 0.03 0.18 0.15 96 1014.6
20260506135934 13 192 4.8 16.1 0.03 0.18 0.15 96 1014.6
20260506134431 13 237 6.4 20.9 0.03 0.18 0.15 96 1014.6
20260506133931 13 139 8.0 20.9 0.03 0.18 0.15 95 1014.5
20260506132933 13 136 8.0 27.4 0.03 0.18 0.15 95 1014.5
20260506132431 13 160 6.4 27.4 0.03 0.18 0.15 95 1014.6
20260506131935 13 124 4.8 12.9 0.00 0.15 0.15 95 1014.5
20260506131433 13 140 4.8 12.9 0.00 0.15 0.15 95 1014.6
20260506130932 13 242 4.8 14.5 0.00 0.15 0.15 95 1014.7
20260506124931 13 186 9.7 24.1 0.00 0.15 0.15 93 1014.9
20260506124433 13 210 9.7 24.1 0.00 0.15 0.15 92 1015.0
20260506123932 14 205 8.0 19.3 0.00 0.18 0.15 90 1014.9
20260506123431 14 221 8.0 19.3 0.00 0.20 0.15 88 1015.0
20260506121931 15 196 9.7 20.9 0.00 0.28 0.15 86 1015.0
20260506121433 15 173 9.7 20.9 0.00 0.30 0.15 85 1015.1
20260506120931 15 206 9.7 20.9 0.00 0.33 0.15 83 1015.1
20260506120429 15 212 11.3 25.7 0.00 0.33 0.15 81 1015.2
20260506115931 15 204 11.3 25.7 0.00 0.33 0.15 79 1015.1
20260506115429 15 224 11.3 29.0 0.00 0.33 0.15 79 1014.9
20260506113925 16 226 12.9 25.7 0.00 0.36 0.15 78 1014.9
20260506113423 16 224 12.9 32.2 0.00 0.36 0.15 79 1014.8
20260506112923 15 166 14.5 32.2 0.00 0.38 0.15 81 1014.7
20260506112423 15 196 12.9 29.0 0.00 0.38 0.15 81 1014.8
20260506111923 15 127 12.9 29.0 0.00 0.38 0.15 82 1014.7
20260506111425 15 214 12.9 29.0 0.00 0.38 0.15 83 1014.8
20260506110422 15 186 11.3 29.0 0.00 0.41 0.15 81 1014.9
20260506104923 15 222 11.3 24.1 0.00 0.41 0.15 80 1015.1
20260506103923 15 200 11.3 25.7 0.00 0.43 0.15 82 1014.9
20260506103422 15 187 9.7 19.3 0.00 0.43 0.15 83 1015.0
20260506102922 15 200 9.7 19.3 0.00 0.43 0.15 83 1015.0
20260506102423 15 210 9.7 24.1 0.00 0.43 0.15 83 1015.2
20260506101918 15 164 9.7 25.7 0.00 0.46 0.15 82 1015.0
20260506100919 15 212 9.7 29.0 0.00 0.46 0.15 81 1015.2
20260506100419 15 233 11.3 29.0 0.00 0.46 0.15 80 1015.1
20260506095919 15 134 11.3 25.7 0.00 0.46 0.15 81 1015.2
20260506095418 15 216 12.9 27.4 0.00 0.46 0.15 81 1015.3
20260506094918 15 136 12.9 27.4 0.00 0.46 0.15 81 1015.2
20260506094419 15 202 12.9 24.1 0.00 0.46 0.15 81 1015.2
20260506093421 14 221 12.9 24.1 0.00 0.46 0.15 83 1015.1
20260506092920 14 209 12.9 24.1 0.00 0.48 0.15 85 1015.2
20260506092418 13 209 12.9 25.7 0.00 0.48 0.15 87 1015.0
20260506091921 13 207 9.7 25.7 0.00 0.48 0.15 93 1014.9
20260506091419 13 222 8.0 17.7 0.00 0.48 0.15 98 1015.1
20260506090418 13 194 8.0 22.5 0.00 0.51 0.15 99 1015.1
20260506085917 12 196 6.4 22.5 0.00 0.51 0.15 99 1015.1
20260506085415 12 173 6.4 17.7 0.00 0.51 0.15 99 1015.2
20260506084917 12 201 6.4 16.1 0.00 0.51 0.15 99 1015.2
20260506084414 12 202 4.8 12.9 0.00 0.51 0.15 99 1015.2
20260506083914 12 114 3.2 8.0 0.00 0.51 0.15 99 1015.1
20260506082914 12 223 4.8 16.1 0.00 0.53 0.15 99 1015.0
20260506082414 11 155 4.8 16.1 0.00 0.53 0.15 99 1014.9
20260506081917 11 151 6.4 16.1 0.00 0.53 0.15 99 1014.8
20260506081415 11 129 8.0 20.9 0.00 0.53 0.15 99 1014.7
20260506080424 11 238 6.4 20.9 0.00 0.53 0.15 99 1014.7
20260506073408 11 155 6.4 16.1 0.00 0.53 0.15 99 1014.6
20260506072910 11 162 6.4 16.1 0.00 0.53 0.15 99 1014.5
20260506072410 11 102 4.8 16.1 0.00 0.53 0.15 99 1014.6
20260506071908 11 165 4.8 16.1 0.00 0.53 0.15 99 1014.6
20260506071408 11 152 4.8 17.7 0.00 0.53 0.15 99 1014.6
20260506070909 11 114 6.4 17.7 0.00 0.53 0.15 99 1014.5
20260506070406 11 151 6.4 16.1 0.00 0.53 0.15 99 1014.7